| time (UTC) | temp F | wind direction | speed knots | gust knots | rain 1hr in | rain 24hr in | rain mn in | humidity % | barometer mb |
| 20260906162703 | 72 | 70 | 6.1 | 10.4 | 0.00 | 0.00 | 0.00 | 90 | 1018.7 |
| 20260906160703 | 72 | 77 | 4.3 | 10.4 | 0.00 | 0.00 | 0.00 | 91 | 1018.8 |
| 20260906155203 | 71 | 80 | 5.2 | 10.4 | 0.00 | 0.00 | 0.00 | 91 | 1018.7 |
| 20260906154703 | 72 | 77 | 4.3 | 7.0 | 0.00 | 0.00 | 0.00 | 91 | 1018.8 |
| 20260906154203 | 72 | 79 | 1.7 | 7.8 | 0.00 | 0.00 | 0.00 | 91 | 1018.9 |
| 20260906153703 | 72 | 78 | 2.6 | 7.0 | 0.00 | 0.00 | 0.00 | 91 | 1018.8 |
| 20260906145703 | 72 | 79 | 2.6 | 7.0 | 0.00 | 0.00 | 0.00 | 92 | 1018.7 |
| 20260906144203 | 71 | 79 | 1.7 | 4.3 | 0.00 | 0.00 | 0.00 | 93 | 1018.5 |
| 20260906142203 | 71 | 86 | 2.6 | 4.3 | 0.00 | 0.00 | 0.00 | 93 | 1018.6 |
| 20260906135704 | 71 | 82 | 2.6 | 5.2 | 0.00 | 0.00 | 0.00 | 93 | 1018.6 |
| 20260906135203 | 70 | 77 | 2.6 | 6.1 | 0.00 | 0.00 | 0.00 | 93 | 1018.6 |
| 20260906131703 | 70 | 117 | 1.7 | 5.2 | 0.00 | 0.00 | 0.00 | 94 | 1018.3 |
| 20260906130703 | 70 | 84 | 1.7 | 5.2 | 0.00 | 0.00 | 0.00 | 94 | 1018.2 |
| 20260906130203 | 70 | 78 | 3.5 | 7.8 | 0.00 | 0.00 | 0.00 | 94 | 1018.1 |
| 20260906122203 | 69 | 73 | 1.7 | 2.6 | 0.00 | 0.00 | 0.00 | 94 | 1017.6 |
| 20260906121203 | 69 | 74 | 2.6 | 4.3 | 0.00 | 0.00 | 0.00 | 94 | 1017.3 |
| 20260906120203 | 69 | 74 | 2.6 | 4.3 | 0.00 | 0.00 | 0.00 | 94 | 1017.3 |
| 20260906114703 | 69 | 85 | 0.9 | 2.6 | 0.00 | 0.00 | 0.00 | 94 | 1017.2 |
| 20260906114203 | 69 | 78 | 1.7 | 2.6 | 0.00 | 0.00 | 0.00 | 94 | 1017.2 |
| 20260906113703 | 69 | 69 | 1.7 | 2.6 | 0.00 | 0.00 | 0.00 | 94 | 1017.2 |
| 20260906113204 | 69 | 83 | 1.7 | 2.6 | 0.00 | 0.00 | 0.00 | 94 | 1017.2 |
| 20260906112703 | 69 | 80 | 0.9 | 2.6 | 0.00 | 0.00 | 0.00 | 94 | 1017.2 |
| 20260906112203 | 69 | 72 | 1.7 | 2.6 | 0.00 | 0.00 | 0.00 | 94 | 1017.2 |
| 20260906111203 | 69 | 88 | 0.0 | 0.0 | 0.00 | 0.00 | 0.00 | 94 | 1017.0 |
| 20260906110703 | 69 | 112 | 0.0 | 1.7 | 0.00 | 0.00 | 0.00 | 94 | 1016.9 |
| 20260906105203 | 69 | 76 | 2.6 | 6.1 | 0.00 | 0.00 | 0.00 | 94 | 1016.9 |
| 20260906104703 | 69 | 71 | 2.6 | 4.3 | 0.00 | 0.00 | 0.00 | 94 | 1016.9 |
| 20260906104203 | 69 | 72 | 2.6 | 4.3 | 0.00 | 0.00 | 0.00 | 94 | 1016.9 |
| 20260906103704 | 69 | 72 | 3.5 | 6.1 | 0.00 | 0.00 | 0.00 | 94 | 1017.0 |
| 20260906103204 | 69 | 76 | 4.3 | 6.1 | 0.00 | 0.00 | 0.00 | 94 | 1017.0 |
| 20260906102703 | 69 | 70 | 2.6 | 4.3 | 0.00 | 0.00 | 0.00 | 93 | 1017.1 |
| 20260906101703 | 69 | 64 | 3.5 | 4.3 | 0.00 | 0.00 | 0.00 | 94 | 1017.0 |
| 20260906101203 | 69 | 71 | 2.6 | 2.6 | 0.00 | 0.00 | 0.00 | 93 | 1017.0 |
| 20260906100203 | 69 | 64 | 2.6 | 4.3 | 0.00 | 0.00 | 0.00 | 93 | 1017.0 |
| 20260906095703 | 69 | 64 | 2.6 | 2.6 | 0.00 | 0.00 | 0.00 | 93 | 1017.2 |
| 20260906092203 | 68 | 57 | 1.7 | 1.7 | 0.00 | 0.00 | 0.00 | 93 | 1016.8 |
| 20260906091703 | 68 | 57 | 1.7 | 1.7 | 0.00 | 0.00 | 0.00 | 92 | 1016.8 |
| 20260906090703 | 69 | 57 | 1.7 | 2.6 | 0.00 | 0.00 | 0.00 | 92 | 1016.7 |
| 20260906090203 | 69 | 62 | 1.7 | 2.6 | 0.00 | 0.00 | 0.00 | 93 | 1016.7 |
| 20260906084703 | 69 | 67 | 0.0 | 0.0 | 0.00 | 0.00 | 0.00 | 92 | 1016.3 |
| 20260906083704 | 69 | 67 | 0.9 | 0.9 | 0.00 | 0.00 | 0.00 | 92 | 1016.2 |
| 20260906083203 | 70 | 67 | 0.9 | 2.6 | 0.00 | 0.00 | 0.00 | 92 | 1016.3 |
| 20260906082203 | 70 | 64 | 2.6 | 2.6 | 0.00 | 0.00 | 0.00 | 91 | 1016.2 |
| 20260906081204 | 70 | 69 | 1.7 | 2.6 | 0.00 | 0.00 | 0.00 | 91 | 1016.2 |
| 20260906075704 | 71 | 103 | 0.9 | 1.7 | 0.00 | 0.00 | 0.00 | 91 | 1016.2 |
| 20260906075203 | 71 | 78 | 0.9 | 2.6 | 0.00 | 0.00 | 0.00 | 91 | 1016.2 |
| 20260906074703 | 71 | 75 | 1.7 | 2.6 | 0.00 | 0.00 | 0.00 | 91 | 1016.1 |
| 20260906074204 | 71 | 75 | 1.7 | 2.6 | 0.00 | 0.00 | 0.00 | 91 | 1016.0 |
| 20260906073703 | 71 | 71 | 2.6 | 4.3 | 0.00 | 0.00 | 0.00 | 91 | 1016.1 |
| 20260906072203 | 71 | 72 | 1.7 | 2.6 | 0.00 | 0.00 | 0.00 | 90 | 1016.2 |
| 20260906071703 | 71 | 74 | 1.7 | 4.3 | 0.00 | 0.00 | 0.00 | 90 | 1016.2 |
| 20260906071203 | 71 | 69 | 2.6 | 4.3 | 0.00 | 0.00 | 0.00 | 90 | 1016.2 |
| 20260906065703 | 72 | 72 | 1.7 | 2.6 | 0.00 | 0.00 | 0.00 | 90 | 1016.3 |
| 20260906063204 | 72 | 73 | 1.7 | 4.3 | 0.00 | 0.00 | 0.00 | 90 | 1016.4 |
| 20260906062203 | 72 | 92 | 2.6 | 7.0 | 0.00 | 0.00 | 0.00 | 90 | 1016.3 |
| 20260906061203 | 72 | 74 | 4.3 | 7.8 | 0.00 | 0.00 | 0.00 | 91 | 1016.2 |
| 20260906060703 | 72 | 73 | 4.3 | 6.1 | 0.00 | 0.00 | 0.00 | 91 | 1016.2 |
| 20260906055204 | 72 | 74 | 4.3 | 7.0 | 0.00 | 0.00 | 0.00 | 92 | 1016.3 |
| 20260906053204 | 73 | 75 | 4.3 | 7.0 | 0.00 | 0.00 | 0.00 | 92 | 1016.2 |
| 20260906052203 | 73 | 69 | 3.5 | 4.3 | 0.00 | 0.00 | 0.00 | 92 | 1016.3 |
| 20260906051704 | 73 | 72 | 2.6 | 4.3 | 0.00 | 0.00 | 0.00 | 92 | 1016.3 |
| 20260906051203 | 73 | 69 | 2.6 | 4.3 | 0.00 | 0.00 | 0.00 | 92 | 1016.3 |
| 20260906045204 | 73 | 72 | 4.3 | 7.0 | 0.00 | 0.00 | 0.00 | 91 | 1016.3 |
| 20260906043203 | 74 | 75 | 4.3 | 7.0 | 0.00 | 0.00 | 0.00 | 91 | 1016.1 |
| 20260906042203 | 74 | 69 | 4.3 | 6.1 | 0.00 | 0.00 | 0.00 | 90 | 1016.2 |
| 20260906041703 | 74 | 65 | 4.3 | 5.2 | 0.00 | 0.00 | 0.00 | 90 | 1016.1 |
| 20260906041203 | 74 | 69 | 4.3 | 4.3 | 0.00 | 0.00 | 0.00 | 90 | 1016.1 |
| 20260906040203 | 75 | 69 | 2.6 | 4.3 | 0.00 | 0.00 | 0.00 | 89 | 1015.8 |
| 20260906033203 | 76 | 69 | 1.7 | 5.2 | 0.00 | 0.00 | 0.00 | 90 | 1015.8 |
| 20260906032704 | 76 | 71 | 2.6 | 4.3 | 0.00 | 0.00 | 0.00 | 90 | 1015.7 |
| 20260906032203 | 76 | 83 | 1.7 | 4.3 | 0.00 | 0.00 | 0.00 | 90 | 1015.7 |
| 20260906030704 | 76 | 76 | 4.3 | 7.0 | 0.00 | 0.00 | 0.00 | 90 | 1015.5 |
| 20260906030203 | 76 | 68 | 4.3 | 7.0 | 0.00 | 0.00 | 0.00 | 90 | 1015.6 |
| 20260906024703 | 77 | 62 | 5.2 | 8.7 | 0.00 | 0.00 | 0.00 | 89 | 1015.6 |
| 20260906023704 | 78 | 65 | 5.2 | 8.7 | 0.00 | 0.00 | 0.00 | 89 | 1015.4 |
| 20260906023203 | 78 | 67 | 6.1 | 7.8 | 0.00 | 0.00 | 0.00 | 89 | 1015.4 |
| 20260906021703 | 78 | 61 | 5.2 | 7.8 | 0.00 | 0.00 | 0.00 | 88 | 1015.3 |
| 20260906015703 | 79 | 57 | 2.6 | 5.2 | 0.00 | 0.00 | 0.00 | 88 | 1014.8 |
| 20260906014703 | 80 | 55 | 4.3 | 7.0 | 0.00 | 0.00 | 0.00 | 87 | 1014.5 |
| 20260906013204 | 81 | 58 | 4.3 | 7.8 | 0.00 | 0.00 | 0.00 | 86 | 1014.2 |
| 20260906010703 | 81 | 41 | 1.7 | 2.6 | 0.00 | 0.00 | 0.00 | 86 | 1014.4 |
| 20260906004703 | 82 | 53 | 2.6 | 4.3 | 0.00 | 0.00 | 0.00 | 85 | 1014.1 |
| 20260906001203 | 85 | 69 | 1.7 | 4.3 | 0.00 | 0.00 | 0.00 | 79 | 1013.8 |
| 20260906000704 | 85 | 72 | 2.6 | 2.6 | 0.00 | 0.00 | 0.00 | 78 | 1013.8 |
| 20260905235703 | 86 | 55 | 2.6 | 4.3 | 0.00 | 0.00 | 0.00 | 76 | 1013.8 |
| 20260905234703 | 87 | 79 | 4.3 | 8.7 | 0.00 | 0.00 | 0.00 | 75 | 1013.7 |
| 20260905233203 | 87 | 59 | 4.3 | 7.0 | 0.00 | 0.00 | 0.00 | 75 | 1013.8 |
| 20260905232203 | 87 | 65 | 4.3 | 7.8 | 0.00 | 0.00 | 0.00 | 75 | 1013.9 |
| 20260905230704 | 87 | 64 | 5.2 | 7.8 | 0.00 | 0.00 | 0.00 | 73 | 1013.9 |
| 20260905230204 | 88 | 57 | 4.3 | 7.0 | 0.00 | 0.00 | 0.00 | 73 | 1013.9 |
| 20260905225704 | 88 | 56 | 4.3 | 5.2 | 0.00 | 0.00 | 0.00 | 73 | 1013.9 |
| 20260905225203 | 88 | 61 | 3.5 | 7.0 | 0.00 | 0.00 | 0.00 | 72 | 1013.9 |
| 20260905224203 | 88 | 80 | 5.2 | 10.4 | 0.00 | 0.00 | 0.00 | 72 | 1013.6 |
| 20260905222703 | 89 | 79 | 5.2 | 10.4 | 0.00 | 0.00 | 0.00 | 70 | 1013.3 |
| 20260905220203 | 89 | 77 | 7.0 | 10.4 | 0.00 | 0.00 | 0.00 | 70 | 1013.3 |
| 20260905215203 | 89 | 73 | 6.1 | 10.4 | 0.00 | 0.00 | 0.00 | 69 | 1013.3 |
| 20260905212203 | 88 | 73 | 6.1 | 10.4 | 0.00 | 0.00 | 0.00 | 71 | 1013.4 |
| 20260905211703 | 88 | 57 | 7.8 | 11.3 | 0.00 | 0.00 | 0.00 | 70 | 1013.4 |
| 20260905211204 | 89 | 66 | 6.1 | 10.4 | 0.00 | 0.00 | 0.00 | 69 | 1013.4 |
| 20260905210203 | 89 | 79 | 7.8 | 12.2 | 0.00 | 0.00 | 0.00 | 69 | 1013.5 |
| 20260905205703 | 89 | 60 | 7.0 | 10.4 | 0.00 | 0.00 | 0.00 | 70 | 1013.7 |
| 20260905205203 | 89 | 38 | 4.3 | 10.4 | 0.00 | 0.00 | 0.00 | 73 | 1013.6 |
| 20260905204703 | 89 | 51 | 7.8 | 11.3 | 0.00 | 0.00 | 0.00 | 71 | 1013.6 |
| 20260905203704 | 89 | 57 | 7.0 | 10.4 | 0.00 | 0.00 | 0.00 | 70 | 1013.7 |
| 20260905203203 | 89 | 55 | 5.2 | 8.7 | 0.00 | 0.00 | 0.00 | 72 | 1013.8 |
| 20260905202204 | 89 | 55 | 7.8 | 11.3 | 0.00 | 0.00 | 0.00 | 71 | 1013.9 |
| 20260905201703 | 89 | 72 | 7.8 | 12.2 | 0.00 | 0.00 | 0.00 | 72 | 1014.0 |
| 20260905201204 | 89 | 74 | 7.8 | 10.4 | 0.00 | 0.00 | 0.00 | 71 | 1014.1 |
| 20260905195704 | 89 | 47 | 5.2 | 10.4 | 0.00 | 0.00 | 0.00 | 75 | 1014.3 |
| 20260905195203 | 88 | 43 | 5.2 | 8.7 | 0.00 | 0.00 | 0.00 | 75 | 1014.5 |
| 20260905193204 | 87 | 59 | 4.3 | 8.7 | 0.00 | 0.00 | 0.00 | 76 | 1014.6 |
| 20260905192204 | 87 | 74 | 7.0 | 8.7 | 0.00 | 0.00 | 0.00 | 77 | 1014.6 |
| 20260905191704 | 87 | 50 | 7.0 | 10.4 | 0.00 | 0.00 | 0.00 | 79 | 1014.7 |
| 20260905185703 | 85 | 47 | 5.2 | 7.8 | 0.00 | 0.00 | 0.00 | 81 | 1015.0 |
| 20260905185203 | 85 | 38 | 3.5 | 7.8 | 0.00 | 0.00 | 0.00 | 81 | 1015.1 |
| 20260905184703 | 85 | 45 | 4.3 | 7.8 | 0.00 | 0.00 | 0.00 | 81 | 1015.2 |
| 20260905183703 | 85 | 37 | 5.2 | 7.8 | 0.00 | 0.00 | 0.00 | 80 | 1015.3 |
| 20260905183203 | 85 | 56 | 4.3 | 6.1 | 0.00 | 0.00 | 0.00 | 80 | 1015.3 |
| 20260905182703 | 85 | 44 | 2.6 | 5.2 | 0.00 | 0.00 | 0.00 | 80 | 1015.3 |
| 20260905182203 | 85 | 28 | 2.6 | 4.3 | 0.00 | 0.00 | 0.00 | 81 | 1015.3 |
| 20260905181703 | 85 | 42 | 4.3 | 8.7 | 0.00 | 0.00 | 0.00 | 80 | 1015.3 |
| 20260905180704 | 85 | 50 | 4.3 | 7.0 | 0.00 | 0.00 | 0.00 | 80 | 1015.3 |
| 20260905175704 | 85 | 41 | 4.3 | 6.1 | 0.00 | 0.00 | 0.00 | 80 | 1015.5 |
| 20260905175204 | 85 | 38 | 2.6 | 4.3 | 0.00 | 0.00 | 0.00 | 81 | 1015.4 |
| 20260905173703 | 85 | 30 | 4.3 | 6.1 | 0.00 | 0.00 | 0.00 | 80 | 1015.1 |
| 20260905173203 | 85 | 38 | 4.3 | 7.0 | 0.00 | 0.00 | 0.00 | 80 | 1015.1 |
| 20260905171704 | 85 | 54 | 5.2 | 7.8 | 0.00 | 0.00 | 0.00 | 80 | 1015.2 |
| 20260905171204 | 85 | 48 | 4.3 | 7.0 | 0.00 | 0.00 | 0.00 | 80 | 1015.2 |
| 20260905170203 | 85 | 71 | 5.2 | 7.8 | 0.00 | 0.00 | 0.00 | 79 | 1015.3 |
| 20260905165204 | 84 | 56 | 3.5 | 5.2 | 0.00 | 0.00 | 0.00 | 82 | 1015.2 |